KD2PO-13 Weather Reports


time (UTC)temp
C
wind
direction
speed
KPH
gust
KPH
rain 1hr
cm
rain 24hr
cm
rain mn
cm
humidity
%
barometer
mb
20260504050726 9 244 6.4 17.7 0.00 0.00 0.00 52
20260504050226 9 237 6.4 16.1 0.00 0.00 0.00 52
20260504045725 9 239 3.2 8.0 0.00 0.00 0.00 52
20260504045225 9 213 3.2 9.7 0.00 0.00 0.00 52
20260504044726 10 246 1.6 9.7 0.00 0.00 0.00 51
20260504044226 10 239 1.6 9.7 0.00 0.00 0.00 51
20260504043225 10 211 1.6 11.3 0.00 0.00 0.00 51
20260504042725 10 0 0.0 8.0 0.00 0.00 0.00 50
20260504042226 10 222 1.6 8.0 0.00 0.00 0.00 50
20260504041726 10 0 0.0 12.9 0.00 0.00 0.00 49
20260504041226 10 0 0.0 12.9 0.00 0.00 0.00 49
20260504040726 10 251 1.6 8.0 0.00 0.00 0.00 48
20260504040225 10 0 0.0 6.4 0.00 0.00 0.00 48
20260504035726 10 228 1.6 6.4 0.00 0.00 0.00 48
20260504035226 10 0 0.0 4.8 0.00 0.00 0.00 48
20260504034726 10 0 0.0 3.2 0.00 0.00 0.00 49
20260504034225 10 0 0.0 1.6 0.00 0.00 0.00 48
20260504033726 10 0 0.0 4.8 0.00 0.00 0.00 48
20260504033226 10 0 0.0 9.7 0.00 0.00 0.00 48
20260504032726 10 256 1.6 9.7 0.00 0.00 0.00 48
20260504032226 10 0 0.0 6.4 0.00 0.00 0.00 48
20260504031725 11 0 0.0 8.0 0.00 0.00 0.00 48
20260504031225 11 0 0.0 8.0 0.00 0.00 0.00 48
20260504030725 11 0 0.0 8.0 0.00 0.00 0.00 48
20260504030226 11 276 1.6 8.0 0.00 0.00 0.00 48
20260504025726 11 276 3.2 8.0 0.00 0.00 0.00 49
20260504025225 11 286 1.6 8.0 0.00 0.00 0.00 49
20260504024726 11 284 3.2 8.0 0.00 0.00 0.00 49
20260504024225 11 288 3.2 9.7 0.00 0.00 0.00 49
20260504023226 11 289 3.2 16.1 0.00 0.00 0.00 48
20260504022726 11 298 4.8 20.9 0.00 0.00 0.00 48
20260504022225 11 299 9.7 20.9 0.00 0.00 0.00 47
20260504021726 11 292 8.0 22.5 0.00 0.00 0.00 47
20260504021225 11 292 12.9 25.7 0.00 0.00 0.00 46
20260504020726 11 302 8.0 25.7 0.00 0.00 0.00 46
20260504020226 11 282 11.3 24.1 0.00 0.00 0.00 46
20260504015725 11 293 9.7 17.7 0.00 0.00 0.00 46
20260504015225 11 302 6.4 12.9 0.00 0.00 0.00 47
20260504014725 11 293 3.2 12.9 0.00 0.00 0.00 47
20260504014226 11 279 6.4 12.9 0.00 0.00 0.00 47
20260504013726 11 285 6.4 17.7 0.00 0.00 0.00 47
20260504013226 11 286 9.7 17.7 0.00 0.00 0.00 47
20260504012725 11 279 6.4 17.7 0.00 0.00 0.00 48
20260504012225 11 296 8.0 33.8 0.00 0.00 0.00 48
20260504011725 11 278 12.9 33.8 0.00 0.00 0.00 48
20260504011226 11 290 16.1 27.4 0.00 0.00 0.00 48
20260504010726 11 302 9.7 25.7 0.00 0.00 0.00 48
20260504010226 11 295 11.3 29.0 0.00 0.00 0.00 47
20260504005725 11 316 16.1 29.0 0.00 0.00 0.00 46
20260504005225 11 316 8.0 30.6 0.00 0.00 0.00 44
20260504004726 11 282 17.7 30.6 0.00 0.00 0.00 44
20260504004226 11 295 9.7 29.0 0.00 0.00 0.00 44
20260504003725 11 291 14.5 29.0 0.00 0.00 0.00 44
20260504003225 11 274 12.9 29.0 0.00 0.00 0.00 45
20260504002725 11 283 1.6 11.3 0.00 0.00 0.00 47
20260504002225 11 0 0.0 8.0 0.00 0.00 0.00 47
20260504001726 11 229 3.2 9.7 0.00 0.00 0.00 47
20260504001225 11 232 1.6 9.7 0.00 0.00 0.00 47
20260504000725 11 0 0.0 9.7 0.00 0.00 0.00 46
20260503235725 11 305 1.6 16.1 0.00 0.00 0.00 46
20260503235225 11 283 8.0 32.2 0.00 0.00 0.00 46
20260503234726 11 276 14.5 32.2 0.00 0.00 0.00 46
20260503234225 11 301 8.0 27.4 0.00 0.00 0.00 45
20260503233725 11 289 12.9 27.4 0.00 0.00 0.00 45
20260503233225 11 318 6.4 32.2 0.00 0.00 0.00 46
20260503232725 11 331 20.9 38.6 0.00 0.00 0.00 46
20260503232225 11 311 16.1 38.6 0.00 0.00 0.00 45
20260503231226 11 299 17.7 38.6 0.00 0.00 0.00 45
20260503230725 11 259 20.9 35.4 0.00 0.00 0.00 44
20260503225725 11 276 4.8 20.9 0.00 0.00 0.00 47
20260503224726 11 259 3.2 14.5 0.00 0.00 0.00 47
20260503224225 12 283 6.4 24.1 0.00 0.00 0.00 46
20260503223725 12 288 11.3 24.1 0.00 0.00 0.00 45
20260503223225 12 277 8.0 16.1 0.00 0.00 0.00 46
20260503222725 12 271 6.4 19.3 0.00 0.00 0.00 45
20260503222225 12 280 8.0 19.3 0.00 0.00 0.00 45
20260503221725 11 292 8.0 17.7 0.00 0.00 0.00 45
20260503221225 11 290 9.7 16.1 0.00 0.00 0.00 45
20260503220726 11 284 6.4 19.3 0.00 0.00 0.00 46
20260503215725 11 294 4.8 14.5 0.00 0.00 0.00 47
20260503214725 11 291 6.4 16.1 0.00 0.00 0.00 45
20260503214225 11 268 6.4 12.9 0.00 0.00 0.00 47
20260503213725 11 293 4.8 14.5 0.00 0.00 0.00 47
20260503212725 11 276 6.4 17.7 0.00 0.00 0.00 46
20260503212225 11 286 4.8 27.4 0.00 0.00 0.00 48
20260503211725 11 288 9.7 27.4 0.00 0.00 0.00 46
20260503211225 11 289 6.4 17.7 0.00 0.00 0.00 47
20260503210725 11 313 4.8 16.1 0.00 0.00 0.00 48
20260503210225 11 323 4.8 19.3 0.00 0.00 0.00 47
20260503205725 11 305 4.8 19.3 0.00 0.00 0.00 47
20260503205225 11 317 8.0 25.7 0.00 0.00 0.00 47
20260503204725 12 287 14.5 25.7 0.00 0.00 0.00 45
20260503204226 11 308 8.0 19.3 0.00 0.00 0.00 48
20260503203725 11 296 9.7 19.3 0.00 0.00 0.00 47
20260503202724 11 307 8.0 27.4 0.00 0.00 0.00 46
20260503201725 10 296 8.0 22.5 0.00 0.00 0.00 49
20260503200725 11 311 6.4 25.7 0.00 0.00 0.00 48
20260503200225 11 312 12.9 24.1 0.00 0.00 0.00 46
20260503195225 11 303 9.7 24.1 0.00 0.00 0.00 48
20260503194724 11 300 6.4 22.5 0.00 0.00 0.00 49
20260503194225 11 311 14.5 30.6 0.00 0.00 0.00 45
20260503193225 11 301 14.5 27.4 0.00 0.00 0.00 45
20260503192725 10 301 11.3 27.4 0.00 0.00 0.00 47
20260503192225 10 321 6.4 27.4 0.00 0.00 0.00 47
20260503191725 11 291 14.5 27.4 0.00 0.00 0.00 45
20260503191224 11 308 9.7 19.3 0.00 0.00 0.00 45
20260503190724 11 334 8.0 25.7 0.00 0.00 0.00 48
20260503185725 10 326 9.7 22.5 0.00 0.00 0.00 48
20260503185225 10 334 8.0 29.0 0.00 0.00 0.00 46
20260503184725 10 320 6.4 29.0 0.00 0.00 0.00 46
20260503184225 10 336 12.9 29.0 0.00 0.00 0.00 46
20260503183225 10 291 16.1 22.5 0.00 0.00 0.00 43
20260503182725 10 313 9.7 22.5 0.00 0.00 0.00 46
20260503182225 10 318 8.0 24.1 0.00 0.00 0.00 45
20260503181725 10 293 8.0 24.1 0.00 0.00 0.00 44
20260503175725 11 274 9.7 19.3 0.00 0.00 0.00 45
20260503175225 11 335 8.0 29.0 0.00 0.00 0.00 46
20260503174724 10 304 14.5 29.0 0.00 0.00 0.00 44
20260503174224 10 294 14.5 27.4 0.00 0.00 0.00 43
20260503173725 10 280 6.4 19.3 0.00 0.00 0.00 43
20260503173224 10 303 9.7 24.1 0.00 0.00 0.00 41
20260503172725 10 301 11.3 24.1 0.00 0.00 0.00 43
20260503171725 10 344 11.3 24.1 0.00 0.00 0.00 45
20260503171225 10 314 9.7 24.1 0.00 0.00 0.00 47
20260503170725 10 340 11.3 24.1 0.00 0.00 0.00 45
20260503150726 7 284 16.1 27.4 0.00 0.00 0.00
20260503131225 5 333 12.9 29.0 0.00 0.00 0.00 56
20260503130724 5 338 14.5 25.7 0.00 0.00 0.00 57
20260503110725 1 290 4.8 9.7 0.00 0.00 0.00 82
20260503090224 -17 0.0 0.0 0.00 0.00 0.00
20260503081223 -17 0.0 0.0 0.00 0.00 0.00
20260503080725 -17 0.0 0.0 0.00 0.00 0.00
20260503072729 -17 0.0 0.0 0.00 0.00 0.00
20260503072724 -17 0.0 0.0 0.00 0.00 0.00
20260503072224 -17 0.0 0.0 0.00 0.00 0.00
20260503071724 -17 0.0 0.0 0.00 0.00 0.00
20260503071224 -17 0.0 0.0 0.00 0.00 0.00
20260503070723 -17 0.0 0.0 0.00 0.00 0.00
20260503054724 2 314 1.6 8.0 0.00 0.00 0.00 79
20260503054223 2 0 0.0 9.7 0.00 0.00 0.00 79
20260503053724 2 0 0.0 9.7 0.00 0.00 0.00 79
20260503053223 2 0 0.0 4.8 0.00 0.00 0.00 79